Regional Weather Roundup
Issued by NWS Wakefield, VA

Home | Current Version | Previous Version | Text Only | Print | Product List | Glossary Off
Versions: 1 2 3 4 5 6 7 8 9 10 11 12 13 14 15 16 17 18 19 20 21 22 23 24 25 26 27 28 29 30 31 32 33 34 35 36 37 38 39 40 41 42 43 44 45 46 47 48 49 50

000
ASUS41 KAKQ 230114
RWRAKQ

REGIONAL WEATHER ROUNDUP
NATIONAL WEATHER SERVICE WAKEFIELD VA
800 PM EST WED FEB 22 2017

Note: "fair" indicates few or no clouds below 12,000 feet with no
significant weather and/or obstructions to visibility. * = Denotes
station may not report precipitation (e.g., rain,snow,etc.),
thunder or fog.

VAZ042-051-052>054-056-230200-
NORTHERN VIRGINIA

CITY           SKY/WX    TMP DP  RH WIND       PRES   REMARKS
WASH NATIONAL  CLOUDY    54  48  80 S8        29.91F
DULLES         CLOUDY    54  46  74 SE6       29.90S
FORT BELVOIR   CLOUDY    52  46  79 CALM      29.91S
QUANTICO       MOCLDY    50  49  96 S5        29.93S
FREDERICKSBRG* MOCLDY    56  53  90 S7        29.92S
STAFFORD*      MOCLDY    56  54  92 S3        29.96S
WARRENTON      PTCLDY    56  49  77 CALM      29.90F
CULPEPER*      CLOUDY    57  53  84 S6        29.91F
MANASSAS*      CLOUDY    51  47  86 S5        29.91S
LEESBURG*      CLOUDY    59  52  77 MISG      29.90F
WINCHESTER     CLOUDY    54  45  71 S5        29.88S
FRONT ROYAL*   MOCLDY    59  50  72 CALM      29.87S
LURAY*         MOCLDY    59  52  77 SW7       29.89S
$$

VAZ048-049-060>072-079>083-230200-
CENTRAL AND SOUTH CENTRAL VIRGINIA

CITY           SKY/WX    TMP DP  RH WIND       PRES   REMARKS
RICHMOND       CLOUDY    53  53 100 S5        29.95S FOG
CHESTERFIELD*  MOCLDY    54  39  58 S5        29.96S
PETERSBURG*    CLOUDY    52  51  95 CALM      29.96S FOG
HANOVER        CLOUDY    55  51  86 S6        29.96S
TAPPAHANNOCK*  CLOUDY    56  56 100 S5        29.95S
QUINTON*       CLOUDY    54  54 100 CALM      29.95R
CHARLOTTSVILLE CLOUDY    57  53  86 S10       29.91S
GORDONSVILLE*  CLOUDY    56  54  90 SW7       29.91F
ORANGE*        CLOUDY    55  52  88 S9        29.93S
LOUISA*        CLOUDY    59  55  88 S6        29.92R
BUMPASS*       CLOUDY    55  54  99 SW7       29.93R
FARMVILLE*     CLOUDY    55  55 100 SW3       29.93S
CREWE*         CLOUDY    55  55 100 CALM      29.95S
FORT PICKETT*  CLOUDY   N/A N/A N/A S10       29.95S
CHASE CITY*    CLOUDY    53  51  94 CALM      29.96S
CLARKSVILLE*   CLOUDY    52  52 100 CALM      29.95S
SOUTH HILL*    CLOUDY    54  54 100 CALM      30.01S
LAWRENCEVILLE* FAIR      54  53  97 CALM      29.96S
EMPORIA*       LGT SNOW  52  52 100 CALM      29.98R VSB 3/4
$$

VAZ088>098-230200-
SOUTHEAST VIRGINIA

CITY           SKY/WX    TMP DP  RH WIND       PRES   REMARKS
NORFOLK        CLOUDY    58  51  78 E3        29.96S
VIRGINIA BEACH CLOUDY    58  49  72 CALM      29.96S
NORFOLK NAVAL  CLOUDY    57  50  77 E5        29.98R
WEST POINT*    CLOUDY    55  54  94 S5        29.96S
SALUDA*        CLOUDY    55  55  99 S5        29.95S
NEWPORT NEWS   CLOUDY    54  53  97 CALM      29.96F
LANGLEY AFB    CLOUDY    54  54 100 NE5       29.96S
FORT EUSTIS    CLOUDY    54  51  90 SE3       29.94S
WILLIAMSBURG*  CLOUDY    55  55 100 CALM      29.97S
HR EXEC AP*    FAIR      55  48  76 CALM      29.95R
FRANKLIN*      CLOUDY    54  52  92 CALM      29.97S
US460-WAKEFLD  CLOUDY    54  54 100 CALM      29.96S
$$

VAZ020-022-025-037-045-230200-
WEST CENTRAL AND SOUTHWEST VIRGINIA

CITY           SKY/WX    TMP DP  RH WIND       PRES   REMARKS
STAUNTON*      CLOUDY    54  50  86 CALM      29.93S
WAYNESBORO*    CLOUDY    55  50  82 W5        29.92S
HOT SPRINGS VA CLOUDY    50  50 100 W10       29.95S
LYNCHBURG      CLOUDY   N/A N/A N/A S6        29.95S FOG
DANVILLE       CLOUDY    54  54 100 CALM      29.96R FOG
SOUTH BOSTON*  CLOUDY    53  52  95 CALM      29.95S VSB 1
MARTINSVILLE   FOG       53  52  97 CALM      29.98S VSB 1
ROANOKE        MOCLDY    53  52  96 CALM      29.96S
BLACKSBURG     FOG       48  48 100 CALM      29.98S VSB 1/4
DUBLIN*        FOG       51  51 100 CALM      29.96S VSB 3/4
MARION*        CLOUDY    52  51  96 CALM      29.98R FOG
HILLSVILLE*    CLOUDY    51  51 100 S7        29.95S
RICHLANDS*     CLOUDY    54  52  94 S3        29.93S
WISE*          MOCLDY    54  54 100 CALM      29.94R
ABINGDON*      PTCLDY    54  54  99 CALM      29.93S FOG
$$

MDZ021>025-VAZ099-100-230200-
SOUTHERN MARYLAND AND THE DELMARVA PENINSULA

CITY           SKY/WX    TMP DP  RH WIND       PRES   REMARKS
PATUXENT RIVER MOCLDY    55  54  96 S9        29.93S
BAY BRIDGE APT PTCLDY    50  46  87 SE5       29.92S
LEONARDTOWN    MOCLDY    54  52  94 S3        29.95R
DOVER          PTCLDY    48  48 100 S5        29.92S
GEORGETOWN     PTCLDY    52  48  86 SW7       29.94S
EASTON         CLEAR     54  48  82 S5        29.97R
CAMBRIDGE      MOCLDY    52  50  93 S5        29.94R
SALISBURY      CLOUDY    56  54  93 S8        29.94F
OCEAN CITY     CLOUDY    55  52  89 SW8       29.95F
WALLOPS ISLAND LGT RAIN  55  55 100 S8        29.97F
ACCOMACK*      CLOUDY    56  55  96 S5        29.96F
$$

NCZ012>017-030>032-230200-
NORTH CENTRAL AND EASTERN NORTH CAROLINA

CITY           SKY/WX    TMP DP  RH WIND       PRES   REMARKS
ROANOKE RAPIDS CLOUDY    55  52  88 CALM      29.95S
RALEIGH        CLOUDY    62  53  72 NE3       29.94S
ELIZABETH CITY CLOUDY    57  52  83 SE3       29.97R
AHOSKIE*         N/A     57  53  85 CALM      29.96
EDENTON*       CLOUDY    63  52  68 CALM      29.97S
CURRITUCK*     CLOUDY    57  50  76 CALM      29.97S
KILL DEVIL HLS NOT AVBL
MANTEO         PTCLDY    58  51  77 SE7       29.98S
CAPE HATTERAS  MOCLDY    67  54  63 S9        29.97S
TARBORO*       NOT AVBL
GOLDSBORO      CLOUDY    65  56  73 SE5       29.94R
WASHINGTON     CLOUDY    62  53  73 SE3       29.97R
GREENVILLE     PTCLDY    64  54  68 S7        29.98R
NEW BERN       CLOUDY    57  52  83 CALM      29.97S
WILMINGTON     CLOUDY    64  54  69 E5        29.95R
$$

VAZ048-230200-
ELSEWHERE

CITY           SKY/WX    TMP DP  RH WIND       PRES   REMARKS
HARRISBURG PA  MOCLDY    51  42  71 SE6       29.89R
BALTIMORE      CLOUDY    51  46  83 CALM      29.91S
ANNAPOLIS      PTCLDY    52  49  89 S8        29.92S
ANDREWS AFB    CLOUDY    53  47  79 S6        29.90F
PHILADELPHIA   CLOUDY    52  44  74 S6        29.93R
HENDERSON NC   CLOUDY    51  49  93 CALM      29.95S
GREENSBORO     CLOUDY    56  56 100 CALM      29.94S FOG
ROCKY MOUNT    CLOUDY    62  54  74 NE3       29.95R
$$

VAZ100-230200-
MARINE

STATION/POSITION TIME  TEMP    WIND        PRES    WAVE   SWELL
                       AIR SEA DIR/SP/G            HT/PER HT/PER
                 (UTC) (F)     (DEG/KT/KT) (MB)    (FT/S) (FT/S)
CAPE MAY NJ      0030   51 43  230/  5/  6 1013.3F
LEWES DE         0048   55 43  210/  4/  7 1013.5F
OCEAN-CITY-INLET 0042   50 44  220/ 12/ 13 1014.5F
WACHAPREAGUE VA  0030   53 51  170/  1/  2 1014.8F
THOMAS POINT MD  0100   46 43  200/  5/  6   N/A
GOOSES REEF MD   0050   47     160/  8/ 10 1014.0R
COVE POINT MD    0030   49     200/  6/  7 1013.9F
SOLOMONS ISLAND  0042   54 44  210/ 11/ 13   N/A
BISHOPS HEAD MD  0042   47 49  160/  9/ 10 1013.9F
PINEY POINT MD   0042          170/  4/  4   N/A
POTOMAC MD       0050   46     170/  6/  6 1012.9F
CAMBRIDGE MD     0030   52 42  150/  3/  4 1012.8R
LEWISETTA VA     0048   56 47  230/  6/  7 1013.4S
RAPPAHANNOCK LGT 0042          160/ 12/ 12 1014.9F
YORK RVR RNG VA  0030   52     110/  4/  5 1013.9F
YORKTOWN VA      0042   53 47  160/  5/  6 1014.2F
JAMESTOWN VA     0050   52     120/  6/  8   N/A
DOMINION TERM VA 0042   54      70/  9/ 12 1014.6S
KIPTOPEKE VA     0042      47   70/  6/  8   N/A
CHES BAY BRIDGE  0042   55 48   90/  8/  8 1014.5F
CAPE HENRY VA    0042   56      80/  4/  5   N/A
WILLOUBY STN VA  0042   52      80/  5/  5 1015.5F
S CRANEY ISL VA  0042   56      70/  4/  5 1014.3S
CAPE HENRY BUOY  0042      49                N/A     3/11   2/11
OFFSHORE WE BUOY 0051      48                N/A     3/ 8   2/11
64NM E OF VA BCH 0050   58 54  170/  6/  6 1014.9S   3/ 8   3/ 8
DUCK PIER NC     0030   54 48  150/ 10/ 10 1014.2F
44100 DUCK FRF   0035      48                N/A     3/10   2/11
44056 DUCK FRF   0030      51                N/A     3/10   2/11
OREGON INLET NC  0042   54 53   90/  4/  5 1015.0R
HATTERAS NC      0048   65 60  160/  5/  7 1014.6S
DIAMOND SHLS NC  0050   68 74  160/ 10/ 14 1015.1S   3/10   3/10
CAPE LOOKOUT NC  0000   65     150/  6/  6 1014.3R
$$



USA.gov is the U.S. government's official web portal to all federal, state and local government web resources and services.